This is the latest recevied weather packets stored in our database for station/object KE8CZD. If no packets are shown the sender has not sent any weather packets the latest 10 day(s).
| Time | Temp. | Humidity | Pressure | Rain* | Wind** | Luminosity | Snow |
|---|---|---|---|---|---|---|---|
| 1777394388 | 15° C | 70% | 1006.9 hPa | 0 mm | - | - | - |
| 1777394028 | 15.56° C | 70% | 1006.8 hPa | 0 mm | - | - | - |
| 1777393669 | 15.56° C | 70% | 1006.6 hPa | 0 mm | - | - | - |
| 1777393308 | 15.56° C | 68% | 1006.6 hPa | 0 mm | - | - | - |
| 1777392948 | 16.11° C | 68% | 1006.4 hPa | 0 mm | - | - | - |
| 1777392588 | 16.11° C | 67% | 1006.1 hPa | 0 mm | - | - | - |
| 1777392228 | 16.11° C | 67% | 1006.1 hPa | 0 mm | - | - | - |
| 1777391868 | 16.11° C | 67% | 1006.2 hPa | 0 mm | - | - | - |
| 1777391508 | 16.11° C | 67% | 1006 hPa | 0 mm | - | - | - |
| 1777391148 | 16.11° C | 66% | 1006.1 hPa | 0 mm | - | - | - |
| 1777390788 | 16.11° C | 67% | 1005.9 hPa | 0 mm | - | - | - |
| 1777390428 | 16.67° C | 67% | 1005.8 hPa | 0 mm | - | - | - |
| 1777390068 | 16.67° C | 67% | 1005.6 hPa | 0 mm | - | - | - |
| 1777389709 | 17.22° C | 65% | 1005.6 hPa | 0 mm | - | - | - |
| 1777389348 | 17.78° C | 64% | 1005.3 hPa | 0 mm | - | - | - |
| 1777388988 | 17.78° C | 67% | 1005 hPa | 0 mm | - | - | - |
| 1777388628 | 17.78° C | 68% | 1005 hPa | 0 mm | - | - | - |
| 1777388268 | 18.33° C | 70% | 1004.8 hPa | 0 mm | - | - | - |
| 1777387908 | 18.33° C | 71% | 1004.8 hPa | 0 mm | - | - | - |
| 1777387549 | 18.33° C | 73% | 1004.7 hPa | 0 mm | - | - | - |
| 1777387188 | 17.78° C | 75% | 1004.8 hPa | 0 mm | - | - | - |
| 1777386828 | 17.78° C | 77% | 1004.7 hPa | 0 mm | - | - | - |
| 1777386468 | 17.78° C | 81% | 1004.5 hPa | 0 mm | - | - | - |
| 1777386108 | 17.78° C | 84% | 1004.3 hPa | 0 mm | - | - | - |
| 1777385748 | 17.78° C | 85% | 1004.2 hPa | 0 mm | - | - | - |
* Rain latest hour (hover to see other rain measurements)
** Current wind speed in m/s (hover to see current wind gust speed)